Moffett NAS, CA

8:39 PM PDT on May 23, 2017 (GMT -0700)
Moffett Federal Air Field

Weather History for KNUQ - November, 2012

Change the Weather History Date:

Friday, November 16, 2012

  Actual Average Record
Temperature  
Mean Temperature 59 °F 56 °F  
Max Temperature 68 °F 65 °F 77 °F (2005)
Min Temperature 50 °F 47 °F 34 °F (1958)
Degree Days  
Heating Degree Days 6    
Month to date heating degree days 117  
Since 1 July heating degree days 228  
Cooling Degree Days 0    
Month to date cooling degree days 6  
Year to date cooling degree days 321  
Growing Degree Days 8 (Base 50)    
Moisture  
Dew Point 52 °F    
Average Humidity 76    
Maximum Humidity 90    
Minimum Humidity 62    
Precipitation  
Precipitation 0.06 in 0.06 in 0.65 in (1965)
Month to date precipitation 0.36 0.80  
Year to date precipitation 6.56 11.28  
Since 1 July precipitation 1.05  
Sea Level Pressure  
Sea Level Pressure 29.95 in    
Wind  
Wind Speed 5 mph (SE)    
Max Wind Speed 18 mph    
Max Gust Speed 22 mph    
Visibility 10 miles    
Events Rain    
T = Trace of Precipitation, MM = Missing Value Source: NWS Daily Summary

Daily Weather History Graph

Daily Weather History Graph

Search for Another Location

Airport or City:

Trip Planner

Search our weather history database for the weather conditions in past years. The results will help you decide how hot, cold, wet, or windy it might be!

Date:

Astronomy

Nov. 16, 2012 Rise Set
Actual Time 6:49 AM PST 4:56 PM PST
Civil Twilight 6:21 AM PST 5:24 PM PST
Nautical Twilight 5:49 AM PST 5:56 PM PST
Astronomical Twilight 5:18 AM PST 6:27 PM PST
Moon 9:47 AM PST (11/16) 8:03 PM PST (11/16)
Length of Visible Light 11h 03m
Length of Day
10h 07m
Waxing Crescent, 12% of the Moon is Illuminated
Nov 16
Waxing Crescent
Nov 20
First Quarter
Nov 28
Full
Dec 6
Last Quarter
Dec 13
New

Hourly Weather History & Observations

Time (PST) Temp. Dew Point Humidity Pressure Visibility Wind Dir Wind Speed Gust Speed Precip Events Conditions
12:56 AM 51.1 °F 46.0 °F 83% 30.01 in 10.0 mi Calm Calm - N/A   Clear
1:56 AM 52.0 °F 46.9 °F 83% 30.00 in 10.0 mi ESE 5.8 mph - N/A   Clear
2:56 AM 55.9 °F 48.0 °F 75% 29.99 in 10.0 mi South 4.6 mph - N/A   Overcast
3:56 AM 55.9 °F 48.0 °F 75% 29.99 in 10.0 mi Calm Calm - N/A   Overcast
4:56 AM 55.9 °F 46.9 °F 72% 29.98 in 10.0 mi ESE 3.5 mph - N/A   Overcast
5:56 AM 55.9 °F 46.0 °F 69% 29.98 in 10.0 mi Calm Calm - N/A   Mostly Cloudy
6:56 AM 57.0 °F 45.0 °F 64% 29.98 in 10.0 mi ESE 6.9 mph - N/A   Overcast
7:56 AM 55.9 °F 50.0 °F 80% 29.99 in 10.0 mi Calm Calm - 0.03 in Rain Light Rain
8:56 AM 60.1 °F 51.1 °F 72% 30.00 in 10.0 mi SE 5.8 mph - N/A   Overcast
9:56 AM 62.1 °F 51.1 °F 67% 29.99 in 10.0 mi SE 10.4 mph - N/A   Mostly Cloudy
10:56 AM 66.0 °F 53.1 °F 63% 29.99 in 10.0 mi ESE 10.4 mph 18.4 mph N/A   Overcast
11:56 AM 64.9 °F 53.1 °F 65% 29.97 in 10.0 mi SE 8.1 mph 19.6 mph N/A   Overcast
12:13 PM 64.4 °F 51.8 °F 64% 29.96 in 10.0 mi ESE 12.7 mph - N/A   Overcast
12:24 PM 64.4 °F 53.6 °F 68% 29.96 in 10.0 mi ESE 15.0 mph - N/A   Overcast
12:56 PM 62.1 °F 54.0 °F 75% 29.97 in 10.0 mi SSE 9.2 mph - N/A   Overcast
1:56 PM 60.1 °F 57.0 °F 90% 29.95 in 10.0 mi SSE 8.1 mph - 0.03 in   Overcast
2:56 PM 62.1 °F 55.9 °F 80% 29.94 in 10.0 mi SE 5.8 mph - N/A   Overcast
3:56 PM 63.0 °F 55.9 °F 78% 29.93 in 10.0 mi ESE 4.6 mph - N/A   Overcast
4:56 PM 63.0 °F 55.9 °F 78% 29.92 in 10.0 mi SE 3.5 mph - N/A   Overcast
5:56 PM 63.0 °F 55.9 °F 78% 29.91 in 10.0 mi Calm Calm - N/A   Overcast
6:56 PM 63.0 °F 55.0 °F 75% 29.90 in 10.0 mi SE 5.8 mph - N/A   Mostly Cloudy
7:56 PM 63.0 °F 54.0 °F 72% 29.90 in 10.0 mi SSE 9.2 mph - 0.00 in   Overcast
8:56 PM 62.1 °F 55.0 °F 78% 29.89 in 10.0 mi SSE 5.8 mph - 0.00 in   Scattered Clouds
9:56 PM 62.1 °F 54.0 °F 75% 29.89 in 10.0 mi SSE 6.9 mph - N/A   Mostly Cloudy
10:56 PM 61.0 °F 55.0 °F 81% 29.88 in 10.0 mi SE 4.6 mph - 0.00 in Rain Light Rain
11:56 PM 60.1 °F 55.0 °F 83% 29.87 in 10.0 mi SSE 5.8 mph - 0.00 in Rain Light Rain